Kingstree, SC

2:38 AM EST on December 14, 2019 (GMT -0500)
Williamsburg County

Weather History for KCKI - October, 2019

Change the Weather History Date:

Sunday, October 27, 2019

  Actual Average Record
Temperature  
Mean Temperature 71 °F -  
Max Temperature 80 °F 73 °F 87 °F (2010)
Min Temperature 62 °F 45 °F 39 °F (2017)
Cooling Degree Days 6    
Growing Degree Days 21 (Base 50)    
Moisture  
Dew Point 72 °F    
Average Humidity 94    
Maximum Humidity 100    
Minimum Humidity 74    
Precipitation  
Precipitation 0.00 in - - ()
Sea Level Pressure  
Sea Level Pressure 29.92 in    
Wind  
Wind Speed 4 mph ()    
Max Wind Speed 8 mph    
Max Gust Speed -    
Visibility 7.7 miles    
Events Rain , Thunderstorm    
Averages and records for this station are not official NWS values.
T = Trace of Precipitation, MM = Missing Value Source: Averaged Metar Reports

Daily Weather History Graph

Daily Weather History Graph

Search for Another Location

Airport or City:

Astronomy

Oct. 27, 2019 Rise Set
Actual Time 7:33 AM EDT 6:32 PM EDT
Civil Twilight 7:08 AM EDT 6:57 PM EDT
Nautical Twilight 6:39 AM EDT 7:26 PM EDT
Astronomical Twilight 6:10 AM EDT 7:55 PM EDT
Moon 6:45 AM EDT (10/27) 6:37 PM EDT (10/27)
Length of Visible Light 11h 49m
Length of Day
10h 58m
Waning Crescent, 0% of the Moon is Illuminated
Oct 27
Waning Crescent
Oct 27
New
Nov 4
First Quarter
Nov 12
Full
Nov 19
Last Quarter

Hourly Weather History & Observations

Time (EDT) Temp. Heat Index Dew Point Humidity Pressure Visibility Wind Dir Wind Speed Gust Speed Precip Events Conditions
12:15 AM 71.6 °F - 69.8 °F 94% 29.95 in 7.0 mi East 3.5 mph - N/A   Overcast
12:35 AM 71.6 °F - 69.8 °F 94% 29.94 in 7.0 mi Calm Calm - N/A   Mostly Cloudy
12:55 AM 71.6 °F - 69.8 °F 94% 29.93 in 7.0 mi East 4.6 mph - N/A   Scattered Clouds
1:15 AM 71.6 °F - 69.8 °F 94% 29.92 in 7.0 mi ESE 4.6 mph - N/A   Scattered Clouds
1:35 AM 71.6 °F - 69.8 °F 94% 29.93 in 10.0 mi ESE 4.6 mph - N/A   Scattered Clouds
1:55 AM 71.6 °F - 69.8 °F 94% 29.92 in 7.0 mi ESE 3.5 mph - N/A   Mostly Cloudy
2:15 AM 71.6 °F - 69.8 °F 94% 29.92 in 10.0 mi ESE 4.6 mph - N/A   Overcast
2:35 AM 71.6 °F - 69.8 °F 94% 29.91 in 10.0 mi ESE 4.6 mph - N/A   Scattered Clouds
2:55 AM 71.6 °F - 71.6 °F 100% 29.89 in 10.0 mi ESE 5.8 mph - N/A   Mostly Cloudy
3:15 AM 71.6 °F - 71.6 °F 100% 29.89 in 10.0 mi ESE 5.8 mph - N/A   Overcast
3:35 AM 71.6 °F - 71.6 °F 100% 29.88 in 10.0 mi ESE 6.9 mph - N/A   Overcast
3:55 AM 71.6 °F - 71.6 °F 100% 29.88 in 10.0 mi SE 4.6 mph - N/A   Scattered Clouds
4:15 AM 73.4 °F - 71.6 °F 94% 29.88 in 10.0 mi SE 8.1 mph - N/A   Mostly Cloudy
4:35 AM 73.4 °F - 71.6 °F 94% 29.88 in 10.0 mi SE 5.8 mph - N/A   Overcast
4:55 AM 73.4 °F - 71.6 °F 94% 29.87 in 10.0 mi SE 5.8 mph - N/A   Overcast
5:15 AM 73.4 °F - 71.6 °F 94% 29.88 in 10.0 mi SE 5.8 mph - N/A   Overcast
5:35 AM 73.4 °F - 71.6 °F 94% 29.88 in 10.0 mi SSE 4.6 mph - N/A   Overcast
5:55 AM 73.4 °F - 73.4 °F 100% 29.88 in 10.0 mi South 5.8 mph - N/A   Overcast
6:15 AM 73.4 °F - 73.4 °F 100% 29.88 in 10.0 mi SSE 4.6 mph - N/A   Overcast
6:35 AM 73.4 °F - 73.4 °F 100% 29.88 in 10.0 mi South 4.6 mph - N/A   Overcast
6:55 AM 73.4 °F - 71.6 °F 94% 29.88 in 10.0 mi SSE 4.6 mph - N/A   Mostly Cloudy
7:15 AM 73.4 °F - 71.6 °F 94% 29.88 in 10.0 mi SSE 6.9 mph - N/A   Scattered Clouds
7:35 AM 73.4 °F - 71.6 °F 94% 29.89 in 7.0 mi SSE 5.8 mph - N/A   Scattered Clouds
7:55 AM 73.4 °F - 71.6 °F 94% 29.89 in 7.0 mi SSE 4.6 mph - N/A   Scattered Clouds
8:15 AM 73.4 °F - 71.6 °F 94% 29.89 in 10.0 mi SSE 5.8 mph - N/A   Scattered Clouds
8:35 AM 73.4 °F - 73.4 °F 100% 29.91 in 7.0 mi South 5.8 mph - N/A   Mostly Cloudy
8:55 AM 73.4 °F - 73.4 °F 100% 29.91 in 7.0 mi South 3.5 mph - N/A   Mostly Cloudy
9:15 AM 75.2 °F - 73.4 °F 94% 29.92 in 7.0 mi South 6.9 mph - N/A   Overcast
9:35 AM 77.0 °F - 73.4 °F 89% 29.93 in 7.0 mi South 6.9 mph - N/A   Overcast
9:55 AM 75.2 °F - 73.4 °F 94% 29.93 in 7.0 mi SSW 6.9 mph - N/A   Overcast
10:15 AM 77.0 °F - 77.0 °F 100% 29.93 in 7.0 mi South 5.8 mph - N/A   Overcast
10:35 AM 77.0 °F - 77.0 °F 100% 29.93 in 7.0 mi South 4.6 mph - N/A   Overcast
10:55 AM 77.0 °F - 77.0 °F 100% 29.93 in 7.0 mi South 8.1 mph - N/A   Overcast
11:35 AM 78.8 °F - 77.0 °F 94% 29.93 in 7.0 mi South 4.6 mph - N/A   Overcast
11:55 AM 78.8 °F - 77.0 °F 94% 29.93 in 7.0 mi SSW 3.5 mph - N/A   Overcast
12:15 PM 78.8 °F - 77.0 °F 94% 29.92 in 7.0 mi SW 4.6 mph - N/A   Overcast
12:35 PM 78.8 °F - 77.0 °F 94% 29.93 in 7.0 mi Calm Calm - N/A   Light Drizzle
12:55 PM 78.8 °F - 77.0 °F 94% 29.91 in 7.0 mi South 3.5 mph - N/A Rain Light Rain
1:15 PM 78.8 °F - 77.0 °F 94% 29.91 in 7.0 mi WSW 6.9 mph - N/A Rain Light Rain
1:35 PM 75.2 °F - 73.4 °F 94% 29.90 in 2.5 mi WSW 8.1 mph - N/A Rain Heavy Rain
1:55 PM 73.4 °F - 73.4 °F 100% 29.90 in 10.0 mi Calm Calm - N/A Rain , Thunderstorm Light Thunderstorms and Rain
2:15 PM 77.0 °F - 75.2 °F 94% 29.89 in 7.0 mi South 4.6 mph - N/A   Overcast
2:35 PM 78.8 °F - 77.0 °F 94% 29.88 in 10.0 mi SW 4.6 mph - N/A   Overcast
2:55 PM 78.8 °F - 77.0 °F 94% 29.88 in 7.0 mi SW 4.6 mph - N/A   Mostly Cloudy
3:15 PM 80.6 °F 87.1 °F 77.0 °F 89% 29.89 in 7.0 mi SSW 5.8 mph - N/A   Mostly Cloudy
3:35 PM 80.6 °F 86.2 °F 75.2 °F 84% 29.88 in 10.0 mi South 4.6 mph - N/A   Overcast
3:55 PM 80.6 °F 86.2 °F 75.2 °F 84% 29.89 in 7.0 mi South 5.8 mph - N/A   Scattered Clouds
4:15 PM 80.6 °F 85.4 °F 73.4 °F 79% 29.89 in 7.0 mi SW 8.1 mph - N/A   Mostly Cloudy
4:35 PM 80.6 °F 85.4 °F 73.4 °F 79% 29.90 in 7.0 mi SW 3.5 mph - N/A   Overcast
4:55 PM 80.6 °F 84.6 °F 71.6 °F 74% 29.89 in 10.0 mi SSW 4.6 mph - N/A   Scattered Clouds
5:15 PM 80.6 °F 84.6 °F 71.6 °F 74% 29.89 in 7.0 mi SW 8.1 mph - N/A   Clear
5:35 PM 78.8 °F - 71.6 °F 78% 29.90 in 10.0 mi SW 5.8 mph - N/A   Clear
5:55 PM 78.8 °F - 71.6 °F 78% 29.91 in 7.0 mi SW 3.5 mph - N/A   Clear
6:15 PM 77.0 °F - 71.6 °F 83% 29.91 in 10.0 mi Calm Calm - N/A   Clear
6:35 PM 75.2 °F - 73.4 °F 94% 29.92 in 5.0 mi Calm Calm - N/A   Clear
6:55 PM 73.4 °F - 71.6 °F 94% 29.93 in 10.0 mi Calm Calm - N/A   Scattered Clouds
7:15 PM 71.6 °F - 71.6 °F 100% 29.93 in 10.0 mi Calm Calm - N/A   Scattered Clouds
7:35 PM 71.6 °F - 69.8 °F 94% 29.93 in 10.0 mi Calm Calm - N/A   Clear
7:55 PM 69.8 °F - 68.0 °F 94% 29.94 in 7.0 mi Calm Calm - N/A   Clear
8:15 PM 69.8 °F - 68.0 °F 94% 29.95 in 7.0 mi Calm Calm - N/A   Scattered Clouds
8:35 PM 68.0 °F - 68.0 °F 100% 29.95 in 7.0 mi Calm Calm - N/A   Scattered Clouds
8:55 PM 68.0 °F - 66.2 °F 94% 29.96 in 10.0 mi Calm Calm - N/A   Scattered Clouds
9:15 PM 68.0 °F - 66.2 °F 94% 29.96 in 7.0 mi Calm Calm - N/A   Scattered Clouds
9:35 PM 66.2 °F - 64.4 °F 94% 29.96 in 7.0 mi Calm Calm - N/A   Scattered Clouds
9:55 PM 66.2 °F - 64.4 °F 94% 29.97 in 7.0 mi Calm Calm - N/A   Scattered Clouds
10:15 PM 66.2 °F - 64.4 °F 94% 29.98 in 7.0 mi Calm Calm - N/A   Scattered Clouds
10:35 PM 64.4 °F - 64.4 °F 100% 29.98 in 3.0 mi Calm Calm - N/A   Mostly Cloudy
10:55 PM 64.4 °F - 62.6 °F 94% 29.99 in 2.5 mi Calm Calm - N/A   Mostly Cloudy
11:15 PM 66.2 °F - 64.4 °F 94% 29.99 in 2.5 mi Calm Calm - N/A   Mostly Cloudy
11:35 PM 62.6 °F - 62.6 °F 100% 29.99 in 1.0 mi Calm Calm - N/A   Overcast
11:55 PM 62.6 °F - 62.6 °F 100% 29.99 in 1.2 mi Calm Calm - N/A   Mostly Cloudy